contact:dominique.lefevre@mio.osupytheas.fr, maurice.libes@osupytheas.fr, didier.mallarino@osupytheas.fr
Project:EMSO http://www.emso-fr.org/EMSO-France
Depth: 2436.0 m
Title:EMSO Ligure Ouest : Data MII capteur CSTAR
DateTime,Latitude,Longitude,Instrument_Serial,Reference_Counts,Signal_Counts,Corrected_Signal_raw_counts,Calculated_Beam_c_inverse_meters,Internal_thermistor_counts
DateTime,Latitude,Longitude,Instrument_Serial,Reference_Counts,Signal_Counts,Corrected_Signal_raw_counts,Calculated_Beam_c_inverse_meters,Internal_thermistor_counts
2021-09-13T00:00:58,42.805,6.029,CST-1368DR,5227,7135,14619,0.264,551
2021-09-13T00:04:00,42.805,6.029,CST-1368DR,5227,7134,14618,0.264,551
2021-09-13T00:07:01,42.805,6.029,CST-1368DR,5227,7135,14619,0.264,551
2021-09-13T00:10:03,42.805,6.029,CST-1368DR,5227,7135,14620,0.264,551
2021-09-13T00:13:04,42.805,6.029,CST-1368DR,5227,7135,14620,0.264,551
2021-09-13T00:16:06,42.805,6.029,CST-1368DR,5227,7135,14620,0.264,551
2021-09-13T00:19:08,42.805,6.029,CST-1368DR,5227,7135,14619,0.264,551
2021-09-13T00:22:09,42.805,6.029,CST-1368DR,5227,7135,14620,0.264,551
2021-09-13T00:25:11,42.805,6.029,CST-1368DR,5227,7134,14618,0.264,551
2021-09-13T00:28:12,42.805,6.029,CST-1368DR,5227,7135,14619,0.264,551
2021-09-13T00:31:14,42.805,6.029,CST-1368DR,5227,7135,14619,0.264,551
2021-09-13T00:34:15,42.805,6.029,CST-1368DR,5227,7133,14617,0.264,551
2021-09-13T00:37:17,42.805,6.029,CST-1368DR,5227,7133,14617,0.264,551
2021-09-13T00:40:19,42.805,6.029,CST-1368DR,5227,7134,14618,0.264,551
2021-09-13T00:43:20,42.805,6.029,CST-1368DR,5227,7134,14618,0.264,551
2021-09-13T00:46:22,42.805,6.029,CST-1368DR,5227,7134,14617,0.264,551
2021-09-13T00:49:23,42.805,6.029,CST-1368DR,5227,7134,14618,0.264,551
2021-09-13T00:52:25,42.805,6.029,CST-1368DR,5227,7134,14618,0.264,551
2021-09-13T00:55:27,42.805,6.029,CST-1368DR,5227,7134,14619,0.264,551
2021-09-13T00:58:28,42.805,6.029,CST-1368DR,5227,7133,14617,0.264,551
2021-09-13T01:01:30,42.805,6.029,CST-1368DR,5227,7134,14617,0.264,551
2021-09-13T01:04:31,42.805,6.029,CST-1368DR,5227,7134,14618,0.264,551
2021-09-13T01:07:33,42.805,6.029,CST-1368DR,5227,7134,14617,0.264,551
2021-09-13T01:10:34,42.805,6.029,CST-1368DR,5227,7134,14617,0.264,551
2021-09-13T01:13:36,42.805,6.029,CST-1368DR,5227,7134,14617,0.264,550
2021-09-13T01:16:38,42.805,6.029,CST-1368DR,5227,7134,14619,0.264,551
2021-09-13T01:19:39,42.805,6.029,CST-1368DR,5227,7134,14618,0.264,551
2021-09-13T01:22:41,42.805,6.029,CST-1368DR,5227,7134,14617,0.264,551
2021-09-13T01:25:42,42.805,6.029,CST-1368DR,5227,7134,14617,0.264,551
2021-09-13T01:28:44,42.805,6.029,CST-1368DR,5227,7133,14616,0.265,551
2021-09-13T01:31:46,42.805,6.029,CST-1368DR,5227,7134,14618,0.264,551
2021-09-13T01:34:47,42.805,6.029,CST-1368DR,5227,7134,14618,0.264,551
2021-09-13T01:37:49,42.805,6.029,CST-1368DR,5227,7133,14616,0.265,551
2021-09-13T01:40:50,42.805,6.029,CST-1368DR,5227,7134,14619,0.264,551
2021-09-13T01:43:52,42.805,6.029,CST-1368DR,5227,7134,14617,0.264,551
2021-09-13T01:46:53,42.805,6.029,CST-1368DR,5227,7134,14618,0.264,551
2021-09-13T01:49:55,42.805,6.029,CST-1368DR,5227,7134,14617,0.264,551
2021-09-13T01:52:57,42.805,6.029,CST-1368DR,5227,7134,14617,0.264,551
2021-09-13T01:55:58,42.805,6.029,CST-1368DR,5227,7134,14618,0.264,551
2021-09-13T01:59:00,42.805,6.029,CST-1368DR,5227,7133,14617,0.264,551
2021-09-13T02:02:01,42.805,6.029,CST-1368DR,5227,7133,14617,0.264,551
2021-09-13T02:05:03,42.805,6.029,CST-1368DR,5227,7133,14616,0.265,551
2021-09-13T02:08:04,42.805,6.029,CST-1368DR,5227,7134,14617,0.264,551
2021-09-13T02:11:06,42.805,6.029,CST-1368DR,5227,7134,14617,0.264,551
2021-09-13T02:14:08,42.805,6.029,CST-1368DR,5227,7133,14616,0.265,551
2021-09-13T02:17:09,42.805,6.029,CST-1368DR,5227,7133,14617,0.264,551
2021-09-13T02:20:11,42.805,6.029,CST-1368DR,5227,7133,14617,0.264,551
2021-09-13T02:23:12,42.805,6.029,CST-1368DR,5227,7133,14616,0.265,551
2021-09-13T02:26:14,42.805,6.029,CST-1368DR,5227,7133,14617,0.264,551
2021-09-13T02:29:16,42.805,6.029,CST-1368DR,5227,7133,14616,0.265,551
2021-09-13T02:32:17,42.805,6.029,CST-1368DR,5227,7133,14617,0.264,551
2021-09-13T02:35:19,42.805,6.029,CST-1368DR,5227,7133,14616,0.265,551
2021-09-13T02:38:20,42.805,6.029,CST-1368DR,5227,7134,14617,0.264,551
2021-09-13T02:41:22,42.805,6.029,CST-1368DR,5227,7134,14617,0.264,551
2021-09-13T02:44:23,42.805,6.029,CST-1368DR,5227,7133,14617,0.264,551
2021-09-13T02:47:25,42.805,6.029,CST-1368DR,5227,7133,14616,0.265,551
2021-09-13T02:50:27,42.805,6.029,CST-1368DR,5227,7133,14616,0.265,551
2021-09-13T02:53:28,42.805,6.029,CST-1368DR,5227,7133,14617,0.264,551
2021-09-13T02:56:30,42.805,6.029,CST-1368DR,5227,7133,14616,0.265,550
2021-09-13T02:59:31,42.805,6.029,CST-1368DR,5227,7132,14614,0.265,551
2021-09-13T03:02:33,42.805,6.029,CST-1368DR,5227,7133,14617,0.264,551
2021-09-13T03:05:35,42.805,6.029,CST-1368DR,5227,7133,14616,0.265,551
2021-09-13T03:08:36,42.805,6.029,CST-1368DR,5227,7133,14617,0.264,551
2021-09-13T03:11:38,42.805,6.029,CST-1368DR,5227,7132,14615,0.265,551
2021-09-13T03:14:39,42.805,6.029,CST-1368DR,5227,7133,14616,0.265,551
2021-09-13T03:17:41,42.805,6.029,CST-1368DR,5227,7133,14617,0.264,551
2021-09-13T03:20:42,42.805,6.029,CST-1368DR,5227,7133,14616,0.265,551
2021-09-13T03:23:44,42.805,6.029,CST-1368DR,5227,7133,14617,0.264,551
2021-09-13T03:26:46,42.805,6.029,CST-1368DR,5227,7133,14616,0.265,551
2021-09-13T03:29:47,42.805,6.029,CST-1368DR,5227,7134,14617,0.264,551
2021-09-13T03:32:49,42.805,6.029,CST-1368DR,5227,7133,14616,0.265,551
2021-09-13T03:35:50,42.805,6.029,CST-1368DR,5227,7132,14614,0.265,551
2021-09-13T03:38:52,42.805,6.029,CST-1368DR,5227,7133,14615,0.265,551
2021-09-13T03:41:53,42.805,6.029,CST-1368DR,5227,7133,14616,0.265,551
2021-09-13T03:44:55,42.805,6.029,CST-1368DR,5227,7133,14616,0.265,551
2021-09-13T03:47:57,42.805,6.029,CST-1368DR,5227,7131,14613,0.266,551
2021-09-13T03:50:58,42.805,6.029,CST-1368DR,5227,7133,14616,0.265,551
2021-09-13T03:54:00,42.805,6.029,CST-1368DR,5227,7133,14616,0.265,551
2021-09-13T03:57:01,42.805,6.029,CST-1368DR,5227,7132,14615,0.265,551
2021-09-13T04:00:03,42.805,6.029,CST-1368DR,5227,7132,14615,0.265,551
2021-09-13T04:03:05,42.805,6.029,CST-1368DR,5227,7132,14615,0.265,551
2021-09-13T04:06:06,42.805,6.029,CST-1368DR,5227,7133,14616,0.265,551
2021-09-13T04:09:08,42.805,6.029,CST-1368DR,5227,7132,14615,0.265,551
2021-09-13T04:12:09,42.805,6.029,CST-1368DR,5227,7132,14615,0.265,551
2021-09-13T04:15:11,42.805,6.029,CST-1368DR,5227,7133,14616,0.265,551
2021-09-13T04:18:12,42.805,6.029,CST-1368DR,5227,7133,14616,0.265,551
2021-09-13T04:21:14,42.805,6.029,CST-1368DR,5227,7133,14615,0.265,551
2021-09-13T04:24:16,42.805,6.029,CST-1368DR,5227,7132,14614,0.265,551
2021-09-13T04:27:17,42.805,6.029,CST-1368DR,5227,7131,14612,0.266,551
2021-09-13T04:30:19,42.805,6.029,CST-1368DR,5227,7132,14614,0.265,551
2021-09-13T04:33:20,42.805,6.029,CST-1368DR,5227,7124,14597,0.270,551
2021-09-13T04:36:22,42.805,6.029,CST-1368DR,5227,7132,14614,0.265,551
2021-09-13T04:39:24,42.805,6.029,CST-1368DR,5227,7133,14615,0.265,551
2021-09-13T04:42:25,42.805,6.029,CST-1368DR,5227,7132,14614,0.265,551
2021-09-13T04:45:27,42.805,6.029,CST-1368DR,5227,7133,14615,0.265,551
2021-09-13T04:48:28,42.805,6.029,CST-1368DR,5227,7133,14615,0.265,551
2021-09-13T04:51:30,42.805,6.029,CST-1368DR,5227,7131,14613,0.266,551
2021-09-13T04:54:31,42.805,6.029,CST-1368DR,5227,7131,14613,0.266,551
2021-09-13T04:57:33,42.805,6.029,CST-1368DR,5227,7132,14614,0.265,551
2021-09-13T05:00:35,42.805,6.029,CST-1368DR,5227,7132,14614,0.265,550
2021-09-13T05:03:36,42.805,6.029,CST-1368DR,5227,7132,14615,0.265,551
2021-09-13T05:06:38,42.805,6.029,CST-1368DR,5227,7132,14614,0.265,551
2021-09-13T05:09:39,42.805,6.029,CST-1368DR,5227,7132,14614,0.265,551
2021-09-13T05:12:41,42.805,6.029,CST-1368DR,5227,7133,14615,0.265,551
2021-09-13T05:15:42,42.805,6.029,CST-1368DR,5227,7132,14614,0.265,551
2021-09-13T05:18:44,42.805,6.029,CST-1368DR,5227,7130,14611,0.266,551
2021-09-13T05:21:46,42.805,6.029,CST-1368DR,5227,7132,14614,0.265,551
2021-09-13T05:24:47,42.805,6.029,CST-1368DR,5227,7132,14614,0.265,551
2021-09-13T05:27:49,42.805,6.029,CST-1368DR,5227,7132,14614,0.265,551
2021-09-13T05:30:50,42.805,6.029,CST-1368DR,5227,7130,14610,0.266,551
2021-09-13T05:33:52,42.805,6.029,CST-1368DR,5227,7132,14614,0.265,551
2021-09-13T05:36:54,42.805,6.029,CST-1368DR,5227,7132,14614,0.265,551
2021-09-13T05:39:55,42.805,6.029,CST-1368DR,5227,7132,14613,0.266,551
2021-09-13T05:42:57,42.805,6.029,CST-1368DR,5227,7132,14614,0.265,551
2021-09-13T05:45:58,42.805,6.029,CST-1368DR,5226,7132,14616,0.265,551
2021-09-13T05:49:00,42.805,6.029,CST-1368DR,5227,7133,14615,0.265,551
2021-09-13T05:52:01,42.805,6.029,CST-1368DR,5227,7132,14614,0.265,551
2021-09-13T05:55:03,42.805,6.029,CST-1368DR,5227,7132,14614,0.265,551
2021-09-13T05:58:05,42.805,6.029,CST-1368DR,5227,7132,14614,0.265,551
2021-09-13T06:01:06,42.805,6.029,CST-1368DR,5227,7132,14614,0.265,551
2021-09-13T06:04:08,42.805,6.029,CST-1368DR,5227,7132,14614,0.265,551
2021-09-13T06:07:09,42.805,6.029,CST-1368DR,5227,7132,14614,0.265,551
2021-09-13T06:10:11,42.805,6.029,CST-1368DR,5227,7132,14614,0.265,551
2021-09-13T06:13:13,42.805,6.029,CST-1368DR,5227,7132,14614,0.265,551
2021-09-13T06:16:14,42.805,6.029,CST-1368DR,5227,7132,14614,0.265,551
2021-09-13T06:19:16,42.805,6.029,CST-1368DR,5227,7131,14613,0.266,551
2021-09-13T06:22:17,42.805,6.029,CST-1368DR,5227,7131,14613,0.266,551
2021-09-13T06:25:19,42.805,6.029,CST-1368DR,5227,7132,14613,0.266,551
2021-09-13T06:28:20,42.805,6.029,CST-1368DR,5227,7132,14614,0.265,551
2021-09-13T06:31:22,42.805,6.029,CST-1368DR,5227,7132,14613,0.266,551
2021-09-13T06:34:24,42.805,6.029,CST-1368DR,5227,7132,14614,0.265,551
2021-09-13T06:37:25,42.805,6.029,CST-1368DR,5227,7132,14614,0.265,551
2021-09-13T06:40:27,42.805,6.029,CST-1368DR,5227,7132,14613,0.266,551
2021-09-13T06:43:28,42.805,6.029,CST-1368DR,5227,7131,14612,0.266,551
2021-09-13T06:46:30,42.805,6.029,CST-1368DR,5227,7132,14614,0.265,551
2021-09-13T06:49:32,42.805,6.029,CST-1368DR,5227,7132,14614,0.265,551
2021-09-13T06:52:33,42.805,6.029,CST-1368DR,5227,7130,14610,0.266,551
2021-09-13T06:55:35,42.805,6.029,CST-1368DR,5227,7132,14613,0.266,551
2021-09-13T06:58:36,42.805,6.029,CST-1368DR,5227,7132,14614,0.265,551
2021-09-13T07:01:38,42.805,6.029,CST-1368DR,5227,7132,14614,0.265,551
2021-09-13T07:04:39,42.805,6.029,CST-1368DR,5227,7132,14613,0.266,551
2021-09-13T07:07:41,42.805,6.029,CST-1368DR,5227,7131,14613,0.266,551
2021-09-13T07:10:43,42.805,6.029,CST-1368DR,5227,7132,14614,0.265,550
2021-09-13T07:13:44,42.805,6.029,CST-1368DR,5227,7131,14613,0.266,551
2021-09-13T07:16:46,42.805,6.029,CST-1368DR,5227,7131,14612,0.266,551
2021-09-13T07:19:47,42.805,6.029,CST-1368DR,5227,7131,14611,0.266,551
2021-09-13T07:22:49,42.805,6.029,CST-1368DR,5227,7131,14612,0.266,551
2021-09-13T07:25:50,42.805,6.029,CST-1368DR,5227,7132,14613,0.266,551
2021-09-13T07:28:52,42.805,6.029,CST-1368DR,5227,7132,14613,0.266,551
2021-09-13T07:31:54,42.805,6.029,CST-1368DR,5226,7130,14613,0.266,551
2021-09-13T07:34:55,42.805,6.029,CST-1368DR,5227,7132,14613,0.266,551
2021-09-13T07:37:57,42.805,6.029,CST-1368DR,5226,7131,14615,0.265,551
2021-09-13T07:40:58,42.805,6.029,CST-1368DR,5226,7131,14615,0.265,551
2021-09-13T07:44:00,42.805,6.029,CST-1368DR,5226,7131,14615,0.265,551
2021-09-13T07:47:02,42.805,6.029,CST-1368DR,5226,7131,14615,0.265,551
2021-09-13T07:50:03,42.805,6.029,CST-1368DR,5226,7131,14615,0.265,551
2021-09-13T07:53:05,42.805,6.029,CST-1368DR,5226,7131,14615,0.265,551
2021-09-13T07:56:06,42.805,6.029,CST-1368DR,5226,7131,14615,0.265,551
2021-09-13T07:59:08,42.805,6.029,CST-1368DR,5226,7131,14615,0.265,551
2021-09-13T08:02:09,42.805,6.029,CST-1368DR,5227,7132,14613,0.266,551
2021-09-13T08:05:11,42.805,6.029,CST-1368DR,5226,7131,14614,0.265,551
2021-09-13T08:08:13,42.805,6.029,CST-1368DR,5226,7131,14614,0.265,551
2021-09-13T08:11:14,42.805,6.029,CST-1368DR,5226,7131,14614,0.265,551
2021-09-13T08:14:16,42.805,6.029,CST-1368DR,5226,7131,14615,0.265,551
2021-09-13T08:17:17,42.805,6.029,CST-1368DR,5226,7131,14615,0.265,551
2021-09-13T08:20:19,42.805,6.029,CST-1368DR,5226,7131,14615,0.265,551
2021-09-13T08:23:20,42.805,6.029,CST-1368DR,5226,7131,14615,0.265,551
2021-09-13T08:26:22,42.805,6.029,CST-1368DR,5226,7131,14615,0.265,551
2021-09-13T08:29:24,42.805,6.029,CST-1368DR,5226,7130,14613,0.266,551
2021-09-13T08:32:25,42.805,6.029,CST-1368DR,5226,7130,14612,0.266,551
2021-09-13T08:35:27,42.805,6.029,CST-1368DR,5226,7130,14612,0.266,551
2021-09-13T08:38:28,42.805,6.029,CST-1368DR,5226,7131,14614,0.265,551
2021-09-13T08:41:30,42.805,6.029,CST-1368DR,5226,7130,14613,0.266,551
2021-09-13T08:44:32,42.805,6.029,CST-1368DR,5226,7130,14613,0.266,551
2021-09-13T08:47:33,42.805,6.029,CST-1368DR,5226,7130,14612,0.266,551
2021-09-13T08:50:35,42.805,6.029,CST-1368DR,5226,7131,14614,0.265,551
2021-09-13T08:53:36,42.805,6.029,CST-1368DR,5226,7130,14613,0.266,551
2021-09-13T08:56:38,42.805,6.029,CST-1368DR,5226,7131,14614,0.265,551
2021-09-13T08:59:39,42.805,6.029,CST-1368DR,5226,7131,14615,0.265,551
2021-09-13T09:02:41,42.805,6.029,CST-1368DR,5226,7130,14612,0.266,551
2021-09-13T09:05:43,42.805,6.029,CST-1368DR,5226,7130,14613,0.266,551
2021-09-13T09:08:44,42.805,6.029,CST-1368DR,5226,7130,14613,0.266,551
2021-09-13T09:11:46,42.805,6.029,CST-1368DR,5226,7131,14614,0.265,551
2021-09-13T09:14:47,42.805,6.029,CST-1368DR,5226,7130,14613,0.266,551
2021-09-13T09:17:49,42.805,6.029,CST-1368DR,5226,7130,14612,0.266,551
2021-09-13T09:20:51,42.805,6.029,CST-1368DR,5226,7130,14612,0.266,551
2021-09-13T09:23:52,42.805,6.029,CST-1368DR,5226,7130,14613,0.266,551
2021-09-13T09:26:54,42.805,6.029,CST-1368DR,5226,7131,14614,0.265,551
2021-09-13T09:29:55,42.805,6.029,CST-1368DR,5226,7131,14614,0.265,551
2021-09-13T09:32:57,42.805,6.029,CST-1368DR,5226,7130,14613,0.266,551
2021-09-13T09:35:58,42.805,6.029,CST-1368DR,5226,7130,14613,0.266,551
2021-09-13T09:39:00,42.805,6.029,CST-1368DR,5226,7130,14613,0.266,551
2021-09-13T09:42:02,42.805,6.029,CST-1368DR,5226,7130,14612,0.266,551
2021-09-13T09:45:03,42.805,6.029,CST-1368DR,5226,7130,14613,0.266,551
2021-09-13T09:48:05,42.805,6.029,CST-1368DR,5226,7130,14612,0.266,551
2021-09-13T09:51:06,42.805,6.029,CST-1368DR,5226,7130,14612,0.266,551
2021-09-13T09:54:08,42.805,6.029,CST-1368DR,5226,7128,14609,0.267,551
2021-09-13T09:57:09,42.805,6.029,CST-1368DR,5226,7130,14612,0.266,551
2021-09-13T10:00:11,42.805,6.029,CST-1368DR,5226,7129,14611,0.266,551
2021-09-13T10:03:13,42.805,6.029,CST-1368DR,5226,7129,14610,0.266,551
2021-09-13T10:06:14,42.805,6.029,CST-1368DR,5226,7130,14613,0.266,551
2021-09-13T10:09:16,42.805,6.029,CST-1368DR,5226,7130,14613,0.266,551
2021-09-13T10:12:17,42.805,6.029,CST-1368DR,5226,7130,14612,0.266,551
2021-09-13T10:15:19,42.805,6.029,CST-1368DR,5226,7129,14610,0.266,551
2021-09-13T10:18:21,42.805,6.029,CST-1368DR,5226,7130,14612,0.266,551
2021-09-13T10:21:22,42.805,6.029,CST-1368DR,5226,7130,14613,0.266,551
2021-09-13T10:24:24,42.805,6.029,CST-1368DR,5226,7130,14612,0.266,551
2021-09-13T10:27:25,42.805,6.029,CST-1368DR,5226,7130,14612,0.266,551
2021-09-13T10:30:27,42.805,6.029,CST-1368DR,5226,7131,14614,0.265,551
2021-09-13T10:33:28,42.805,6.029,CST-1368DR,5226,7130,14612,0.266,551
2021-09-13T10:36:30,42.805,6.029,CST-1368DR,5226,7130,14612,0.266,551
2021-09-13T10:39:32,42.805,6.029,CST-1368DR,5226,7130,14613,0.266,551
2021-09-13T10:42:33,42.805,6.029,CST-1368DR,5226,7130,14612,0.266,551
2021-09-13T10:45:35,42.805,6.029,CST-1368DR,5226,7130,14613,0.266,551
2021-09-13T10:48:36,42.805,6.029,CST-1368DR,5226,7130,14613,0.266,551
2021-09-13T10:51:38,42.805,6.029,CST-1368DR,5226,7129,14611,0.266,551
2021-09-13T10:54:40,42.805,6.029,CST-1368DR,5226,7130,14612,0.266,551
2021-09-13T10:57:41,42.805,6.029,CST-1368DR,5226,7130,14612,0.266,551
2021-09-13T11:00:43,42.805,6.029,CST-1368DR,5226,7130,14612,0.266,551
2021-09-13T11:03:44,42.805,6.029,CST-1368DR,5226,7129,14611,0.266,551
2021-09-13T11:06:46,42.805,6.029,CST-1368DR,5226,7130,14612,0.266,551
2021-09-13T11:09:47,42.805,6.029,CST-1368DR,5226,7129,14611,0.266,551
2021-09-13T11:12:49,42.805,6.029,CST-1368DR,5226,7129,14611,0.266,551
2021-09-13T11:15:51,42.805,6.029,CST-1368DR,5226,7129,14611,0.266,551
2021-09-13T11:18:52,42.805,6.029,CST-1368DR,5226,7129,14611,0.266,551
2021-09-13T11:21:54,42.805,6.029,CST-1368DR,5226,7129,14611,0.266,551
2021-09-13T11:24:55,42.805,6.029,CST-1368DR,5226,7129,14610,0.266,551
2021-09-13T11:27:57,42.805,6.029,CST-1368DR,5226,7130,14612,0.266,551
2021-09-13T11:30:59,42.805,6.029,CST-1368DR,5226,7129,14611,0.266,551
2021-09-13T11:34:00,42.805,6.029,CST-1368DR,5226,7129,14610,0.266,551
2021-09-13T11:37:02,42.805,6.029,CST-1368DR,5226,7129,14611,0.266,551
2021-09-13T11:40:03,42.805,6.029,CST-1368DR,5226,7128,14609,0.267,551
2021-09-13T11:43:05,42.805,6.029,CST-1368DR,5226,7129,14611,0.266,550
2021-09-13T11:46:06,42.805,6.029,CST-1368DR,5226,7130,14612,0.266,551
2021-09-13T11:49:08,42.805,6.029,CST-1368DR,5226,7130,14612,0.266,551
2021-09-13T11:52:10,42.805,6.029,CST-1368DR,5226,7129,14611,0.266,551
2021-09-13T11:55:11,42.805,6.029,CST-1368DR,5226,7129,14610,0.266,551
2021-09-13T11:58:13,42.805,6.029,CST-1368DR,5226,7129,14610,0.266,551
2021-09-13T12:01:14,42.805,6.029,CST-1368DR,5226,7129,14611,0.266,551
2021-09-13T12:04:16,42.805,6.029,CST-1368DR,5226,7129,14610,0.266,550
2021-09-13T12:07:17,42.805,6.029,CST-1368DR,5226,7129,14611,0.266,551
2021-09-13T12:10:19,42.805,6.029,CST-1368DR,5226,7129,14611,0.266,551
2021-09-13T12:13:21,42.805,6.029,CST-1368DR,5226,7130,14612,0.266,551
2021-09-13T12:16:22,42.805,6.029,CST-1368DR,5226,7129,14611,0.266,551
2021-09-13T12:19:24,42.805,6.029,CST-1368DR,5226,7129,14610,0.266,551
2021-09-13T12:22:25,42.805,6.029,CST-1368DR,5226,7130,14612,0.266,551
2021-09-13T12:25:27,42.805,6.029,CST-1368DR,5226,7129,14610,0.266,551
2021-09-13T12:28:29,42.805,6.029,CST-1368DR,5226,7129,14611,0.266,551
2021-09-13T12:31:30,42.805,6.029,CST-1368DR,5226,7128,14608,0.267,551
2021-09-13T12:34:32,42.805,6.029,CST-1368DR,5226,7129,14610,0.266,551
2021-09-13T12:37:33,42.805,6.029,CST-1368DR,5226,7128,14609,0.267,551
2021-09-13T12:40:35,42.805,6.029,CST-1368DR,5226,7129,14610,0.266,551
2021-09-13T12:43:36,42.805,6.029,CST-1368DR,5226,7129,14611,0.266,551
2021-09-13T12:46:38,42.805,6.029,CST-1368DR,5226,7129,14610,0.266,551
2021-09-13T12:49:40,42.805,6.029,CST-1368DR,5226,7129,14610,0.266,551
2021-09-13T12:52:41,42.805,6.029,CST-1368DR,5226,7129,14610,0.266,551
2021-09-13T12:55:43,42.805,6.029,CST-1368DR,5226,7128,14609,0.267,551
2021-09-13T12:58:44,42.805,6.029,CST-1368DR,5226,7129,14611,0.266,551
2021-09-13T13:01:46,42.805,6.029,CST-1368DR,5226,7129,14610,0.266,551
2021-09-13T13:04:48,42.805,6.029,CST-1368DR,5226,7129,14610,0.266,551
2021-09-13T13:07:49,42.805,6.029,CST-1368DR,5226,7129,14610,0.266,551
2021-09-13T13:10:51,42.805,6.029,CST-1368DR,5226,7129,14610,0.266,551
2021-09-13T13:13:52,42.805,6.029,CST-1368DR,5226,7128,14608,0.267,551
2021-09-13T13:16:54,42.805,6.029,CST-1368DR,5226,7128,14609,0.267,551
2021-09-13T13:19:55,42.805,6.029,CST-1368DR,5226,7129,14610,0.266,551
2021-09-13T13:22:57,42.805,6.029,CST-1368DR,5226,7129,14610,0.266,550
2021-09-13T13:25:59,42.805,6.029,CST-1368DR,5226,7129,14610,0.266,551
2021-09-13T13:29:00,42.805,6.029,CST-1368DR,5226,7129,14610,0.266,551
2021-09-13T13:32:02,42.805,6.029,CST-1368DR,5226,7129,14610,0.266,551
2021-09-13T13:35:03,42.805,6.029,CST-1368DR,5226,7128,14609,0.267,551
2021-09-13T13:38:05,42.805,6.029,CST-1368DR,5226,7129,14610,0.266,551
2021-09-13T13:41:06,42.805,6.029,CST-1368DR,5226,7128,14608,0.267,551
2021-09-13T13:44:08,42.805,6.029,CST-1368DR,5226,7128,14609,0.267,551
2021-09-13T13:47:10,42.805,6.029,CST-1368DR,5226,7128,14609,0.267,551
2021-09-13T13:50:11,42.805,6.029,CST-1368DR,5226,7129,14610,0.266,551
2021-09-13T13:53:13,42.805,6.029,CST-1368DR,5226,7127,14607,0.267,551
2021-09-13T13:56:14,42.805,6.029,CST-1368DR,5226,7129,14610,0.266,551
2021-09-13T13:59:16,42.805,6.029,CST-1368DR,5226,7129,14610,0.266,551
2021-09-13T14:02:18,42.805,6.029,CST-1368DR,5226,7119,14590,0.272,551
2021-09-13T14:05:19,42.805,6.029,CST-1368DR,5226,7128,14609,0.267,551
2021-09-13T14:08:21,42.805,6.029,CST-1368DR,5226,7129,14610,0.266,551
2021-09-13T14:11:22,42.805,6.029,CST-1368DR,5226,7129,14611,0.266,551
2021-09-13T14:14:24,42.805,6.029,CST-1368DR,5226,7126,14604,0.268,551
2021-09-13T14:17:25,42.805,6.029,CST-1368DR,5226,7129,14610,0.266,551
2021-09-13T14:20:27,42.805,6.029,CST-1368DR,5226,7128,14608,0.267,551
2021-09-13T14:23:29,42.805,6.029,CST-1368DR,5226,7128,14608,0.267,551
2021-09-13T14:26:30,42.805,6.029,CST-1368DR,5226,7127,14607,0.267,551
2021-09-13T14:29:32,42.805,6.029,CST-1368DR,5226,7126,14605,0.268,551
2021-09-13T14:32:33,42.805,6.029,CST-1368DR,5226,7128,14609,0.267,551
2021-09-13T14:35:35,42.805,6.029,CST-1368DR,5226,7128,14609,0.267,551
2021-09-13T14:38:37,42.805,6.029,CST-1368DR,5226,7128,14608,0.267,551
2021-09-13T14:41:38,42.805,6.029,CST-1368DR,5226,7128,14608,0.267,551
2021-09-13T14:44:40,42.805,6.029,CST-1368DR,5226,7128,14609,0.267,551
2021-09-13T14:47:41,42.805,6.029,CST-1368DR,5226,7128,14609,0.267,551
2021-09-13T14:50:43,42.805,6.029,CST-1368DR,5226,7128,14608,0.267,551
2021-09-13T14:53:44,42.805,6.029,CST-1368DR,5226,7128,14609,0.267,551
2021-09-13T14:56:46,42.805,6.029,CST-1368DR,5226,7128,14609,0.267,551
2021-09-13T14:59:48,42.805,6.029,CST-1368DR,5226,7128,14609,0.267,551
2021-09-13T15:02:49,42.805,6.029,CST-1368DR,5226,7128,14609,0.267,551
2021-09-13T15:05:51,42.805,6.029,CST-1368DR,5226,7128,14608,0.267,551
2021-09-13T15:08:52,42.805,6.029,CST-1368DR,5226,7128,14609,0.267,551
2021-09-13T15:11:54,42.805,6.029,CST-1368DR,5226,7128,14609,0.267,551
2021-09-13T15:14:56,42.805,6.029,CST-1368DR,5226,7128,14609,0.267,551
2021-09-13T15:17:57,42.805,6.029,CST-1368DR,5226,7127,14607,0.267,551
2021-09-13T15:20:59,42.805,6.029,CST-1368DR,5226,7128,14608,0.267,551
2021-09-13T15:24:00,42.805,6.029,CST-1368DR,5226,7127,14607,0.267,551
2021-09-13T15:27:02,42.805,6.029,CST-1368DR,5226,7128,14608,0.267,551
2021-09-13T15:30:03,42.805,6.029,CST-1368DR,5226,7128,14608,0.267,551
2021-09-13T15:33:05,42.805,6.029,CST-1368DR,5226,7128,14608,0.267,551
2021-09-13T15:36:07,42.805,6.029,CST-1368DR,5226,7126,14605,0.268,551
2021-09-13T15:39:08,42.805,6.029,CST-1368DR,5226,7128,14608,0.267,551
2021-09-13T15:42:10,42.805,6.029,CST-1368DR,5226,7128,14609,0.267,551
2021-09-13T15:45:11,42.805,6.029,CST-1368DR,5226,7128,14608,0.267,551
2021-09-13T15:48:13,42.805,6.029,CST-1368DR,5226,7126,14605,0.268,551
2021-09-13T15:51:14,42.805,6.029,CST-1368DR,5226,7128,14608,0.267,551
2021-09-13T15:54:16,42.805,6.029,CST-1368DR,5226,7128,14609,0.267,551
2021-09-13T15:57:18,42.805,6.029,CST-1368DR,5226,7128,14608,0.267,551
2021-09-13T16:00:19,42.805,6.029,CST-1368DR,5226,7128,14608,0.267,551
2021-09-13T16:03:21,42.805,6.029,CST-1368DR,5226,7127,14606,0.267,551
2021-09-13T16:06:22,42.805,6.029,CST-1368DR,5226,7127,14607,0.267,551
2021-09-13T16:09:24,42.805,6.029,CST-1368DR,5226,7127,14607,0.267,551
2021-09-13T16:12:26,42.805,6.029,CST-1368DR,5225,7127,14609,0.267,551
2021-09-13T16:15:27,42.805,6.029,CST-1368DR,5226,7128,14608,0.267,551
2021-09-13T16:18:29,42.805,6.029,CST-1368DR,5226,7127,14606,0.267,551
2021-09-13T16:21:30,42.805,6.029,CST-1368DR,5226,7127,14607,0.267,551
2021-09-13T16:24:32,42.805,6.029,CST-1368DR,5225,7127,14609,0.267,551
2021-09-13T16:27:33,42.805,6.029,CST-1368DR,5226,7128,14608,0.267,551
2021-09-13T16:30:35,42.805,6.029,CST-1368DR,5225,7123,14602,0.269,551
2021-09-13T16:33:37,42.805,6.029,CST-1368DR,5225,7127,14608,0.267,551
2021-09-13T16:36:38,42.805,6.029,CST-1368DR,5225,7127,14609,0.267,551
2021-09-13T16:39:40,42.805,6.029,CST-1368DR,5225,7127,14608,0.267,551
2021-09-13T16:42:41,42.805,6.029,CST-1368DR,5226,7126,14605,0.268,551
2021-09-13T16:45:43,42.805,6.029,CST-1368DR,5226,7126,14605,0.268,551
2021-09-13T16:48:45,42.805,6.029,CST-1368DR,5226,7127,14606,0.267,551
2021-09-13T16:51:46,42.805,6.029,CST-1368DR,5226,7127,14606,0.267,551